This demonstration page uses our WeatherBlox Daily Observations layout. Learn more.

Left ArrowRight Arrow

39.01783, -85.05884

Hourly Observations for April 29, 2018

Temp ( °F °C ) Dew Point ( °F °C ) Humidity (%) Winds ( mph kmh ) Pressure ( in mb ) Visibility ( mi km ) Precip ( " mm )
12:52 am 00:52 Clear 43 6.1 19 -7.2 38 38 NNW 15 24 30.18 1022 10 16 N/A
1:52 am 01:52 Clear 40 4.4 18 -7.8 41 41 NNW 10 17 30.19 1022 10 16 N/A
2:52 am 02:52 Clear 37 2.8 19 -7.2 48 48 NW 5 7 30.19 1022 10 16 N/A
3:52 am 03:52 Clear 35 1.7 20 -6.7 54 54 NNW 8 13 30.20 1023 10 16 N/A
4:52 am 04:52 Clear 34 1.1 21 -6.1 59 59 WNW 3 6 30.21 1023 10 16 N/A
5:52 am 05:52 Clear 33 0.6 22 -5.6 64 64 N N/A 30.23 1024 10 16 N/A
6:52 am 06:52 Sunny 33 0.6 21 -6.1 61 61 NW 6 9 30.25 1024 10 16 N/A
7:52 am 07:52 Sunny 36 2.2 22 -5.6 57 57 NNW 8 13 30.27 1025 10 16 N/A
8:52 am 08:52 Sunny 40 4.4 25 -3.9 55 55 N 6 9 30.29 1026 10 16 N/A
9:52 am 09:52 Sunny 45 7.2 28 -2.2 52 52 N 8 13 30.31 1027 10 16 N/A
10:52 am 10:52 Sunny 49 9.4 31 -0.6 50 50 N 7 11 30.32 1027 10 16 N/A
11:52 am 11:52 Sunny 50 10 29 -1.7 44 44 VRB 3 6 30.33 1027 10 16 N/A
12:52 pm 12:52 Mostly Sunny 53 11.7 27 -2.8 37 37 NNW 7 11 30.32 1027 10 16 N/A
1:52 pm 13:52 Sunny 56 13.3 26 -3.3 32 32 NE 9 15 30.32 1027 10 16 N/A
2:52 pm 14:52 Sunny 57 13.9 26 -3.3 30 30 N N/A 30.31 1026 10 16 N/A
3:52 pm 15:52 Sunny 58 14.4 27 -2.8 31 31 VRB 3 6 30.29 1026 10 16 N/A
4:52 pm 16:52 Sunny 59 15 26 -3.3 28 28 N 8 13 30.28 1025 10 16 N/A
5:52 pm 17:52 Sunny 60 15.6 23 -5 24 24 NNE 3 6 30.27 1025 10 16 N/A
6:52 pm 18:52 Sunny 59 15 21 -6.1 23 23 NNW 9 15 30.26 1025 10 16 N/A
7:52 pm 19:52 Sunny 57 13.9 22 -5.6 26 26 N N/A 30.25 1024 10 16 N/A
8:52 pm 20:52 Clear 55 12.8 20 -6.7 25 25 N N/A 30.26 1025 10 16 N/A
9:52 pm 21:52 Clear 52 11.1 26 -3.3 37 37 N N/A 30.27 1025 10 16 N/A
10:52 pm 22:52 Clear 46 7.8 27 -2.8 47 47 N N/A 30.27 1025 10 16 N/A
11:52 pm 23:52 Clear 45 7.2 27 -2.8 49 49 N N/A 30.27 1025 10 16 N/A

Powered by AerisWeather